EW5123 Weather Reports


time (UTC)temp
F
wind
direction
speed
knots
gust
knots
rain 1hr
in
rain 24hr
in
rain mn
in
humidity
%
barometer
mb
20260510020920 55 38 7.0 15.6 0.00 0.00 0.00 54 983.5
20260510020424 57 18 8.7 17.4 0.00 0.00 0.00 48 983.3
20260510020420 56 329 7.8 15.6 0.00 0.00 0.00 50 983.4
20260510015420 60 345 6.1 19.1 0.00 0.00 0.00 44 982.4
20260510014920 63 321 1.7 19.1 0.00 0.00 0.00 37 981.2
20260510014419 63 324 0.9 3.5 0.00 0.00 0.00 33 980.6
20260510013920 63 352 0.0 2.6 0.00 0.00 0.00 32 980.2
20260510013419 63 335 0.0 1.7 0.00 0.00 0.00 32 980.1
20260510012920 64 356 0.0 0.9 0.00 0.00 0.00 31 980.0
20260510012421 64 342 0.0 0.9 0.00 0.00 0.00 31 979.9
20260510011917 64 338 0.0 1.7 0.00 0.00 0.00 31 979.9
20260510011418 64 354 0.0 1.7 0.00 0.00 0.00 29 979.9
20260510010922 65 341 0.0 2.6 0.00 0.00 0.00 30 979.8
20260510010918 64 328 0.0 2.6 0.00 0.00 0.00 30 979.8
20260510005917 65 345 0.0 1.7 0.00 0.00 0.00 29 979.6
20260510005417 65 334 0.0 3.5 0.00 0.00 0.00 28 979.5
20260510004922 66 0 0.9 3.5 0.00 0.00 0.00 26 979.3
20260510004918 65 359 0.9 3.5 0.00 0.00 0.00 27 979.4
20260510004523 66 357 0.9 3.5 0.00 0.00 0.00 26 979.3
20260510003417 66 11 0.9 2.6 0.00 0.00 0.00 27 979.3
20260510002918 66 359 0.9 3.5 0.00 0.00 0.00 25 979.2
20260510002417 66 356 1.7 3.5 0.00 0.00 0.00 25 979.2
20260510001921 66 341 0.9 4.3 0.00 0.00 0.00 24 979.1
20260510001917 66 357 1.7 4.3 0.00 0.00 0.00 24 979.1
20260510000418 67 4 1.7 4.3 0.00 0.00 0.00 24 978.9
20260509235922 67 345 1.7 5.2 0.00 0.00 0.00 24 979.1
20260509235918 67 18 1.7 5.2 0.00 0.00 0.00 23 978.9
20260509234917 67 1 0.9 4.3 0.00 0.00 0.00 23 979.1
20260509234417 67 15 0.0 3.5 0.00 0.00 0.00 23 979.1
20260509233917 67 203 0.0 0.9 0.00 0.00 0.00 22 978.9
20260509233418 67 207 0.0 1.7 0.00 0.00 0.00 22 978.9
20260509232918 68 304 0.9 3.5 0.00 0.00 0.00 23 978.9
20260509232418 68 338 1.7 4.3 0.00 0.00 0.00 22 978.8
20260509231917 68 359 1.7 6.1 0.00 0.00 0.00 22 978.9
20260509231419 69 347 2.6 9.6 0.00 0.00 0.00 24 979.1
20260509231415 69 337 1.7 6.1 0.00 0.00 0.00 23 978.9
20260509230415 69 32 3.5 9.6 0.00 0.00 0.00 25 979.1
20260509225916 69 326 2.6 8.7 0.00 0.00 0.00 24 979.1
20260509225415 69 309 1.7 6.1 0.00 0.00 0.00 24 979.1
20260509224913 69 342 1.7 6.1 0.00 0.00 0.00 23 978.9
20260509224414 69 345 1.7 6.1 0.00 0.00 0.00 24 978.9
20260509223913 70 319 1.7 7.8 0.00 0.00 0.00 23 978.9
20260509223417 70 337 2.6 10.4 0.00 0.00 0.00 23 978.6
20260509223413 70 356 2.6 7.8 0.00 0.00 0.00 23 978.8
20260509222413 71 304 2.6 10.4 0.00 0.00 0.00 24 978.6
20260509221914 71 200 1.7 9.6 0.00 0.00 0.00 23 978.7
20260509221414 71 6 0.9 4.3 0.00 0.00 0.00 23 978.7
20260509220913 70 7 0.0 1.7 0.00 0.00 0.00 23 978.5
20260509220413 69 82 0.9 5.2 0.00 0.00 0.00 22 978.3
20260509215913 68 20 2.6 6.1 0.00 0.00 0.00 22 978.7
20260509215413 68 335 3.5 7.8 0.00 0.00 0.00 23 978.9
20260509214914 69 15 1.7 7.8 0.00 0.00 0.00 21 978.7
20260509214417 68 260 1.7 6.1 0.00 0.00 0.00 23 978.6
20260509214413 69 26 0.9 6.1 0.00 0.00 0.00 23 978.6
20260509213413 68 307 1.7 6.1 0.00 0.00 0.00 21 978.8
20260509212913 67 339 2.6 9.6 0.00 0.00 0.00 22 978.9
20260509212413 67 301 2.6 9.6 0.00 0.00 0.00 23 979.2
20260509211913 67 323 3.5 10.4 0.00 0.00 0.00 25 979.1
20260509211413 68 16 4.3 11.3 0.00 0.00 0.00 25 979.2
20260509210912 68 310 2.6 11.3 0.00 0.00 0.00 23 978.9
20260509210411 68 293 2.6 7.0 0.00 0.00 0.00 23 979.1
20260509205911 68 350 2.6 7.0 0.00 0.00 0.00 20 979.2
20260509205415 69 323 3.5 7.8 0.00 0.00 0.00 20 978.9
20260509205411 69 6 2.6 6.1 0.00 0.00 0.00 20 979.2
20260509204910 69 313 3.5 6.1 0.00 0.00 0.00 20 979.1
20260509203911 70 6 1.7 7.8 0.00 0.00 0.00 20 979.1
20260509203411 71 341 2.6 8.7 0.00 0.00 0.00 19 979.1
20260509202910 71 336 3.5 8.7 0.00 0.00 0.00 22 978.9
20260509202409 71 317 3.5 9.6 0.00 0.00 0.00 20 978.9
20260509201909 72 22 4.3 12.2 0.00 0.00 0.00 21 979.1
20260509201413 72 347 4.3 15.6 0.00 0.00 0.00 20 979.2
20260509201409 73 343 5.2 15.6 0.00 0.00 0.00 20 979.1
20260509200413 73 24 1.7 6.1 0.00 0.00 0.00 19 979.2
20260509200409 73 350 2.6 6.1 0.00 0.00 0.00 19 979.1
20260509195409 72 328 2.6 7.8 0.00 0.00 0.00 17 979.2
20260509194908 72 324 4.3 9.6 0.00 0.00 0.00 17 979.2
20260509194409 72 36 5.2 11.3 0.00 0.00 0.00 20 979.2
20260509193910 71 102 4.3 11.3 0.00 0.00 0.00 19 979.3
20260509193407 72 20 4.3 10.4 0.00 0.00 0.00 18 979.3
20260509192906 72 327 5.2 10.4 0.00 0.00 0.00 17 979.2
20260509192407 71 1 4.3 11.3 0.00 0.00 0.00 17 979.2
20260509191909 71 356 4.3 11.3 0.00 0.00 0.00 18 979.2
20260509191407 71 333 5.2 11.3 0.00 0.00 0.00 20 979.2
20260509190907 71 27 6.1 15.6 0.00 0.00 0.00 19 979.3
20260509190408 71 320 5.2 25.2 0.00 0.00 0.00 17 979.3
20260509185907 70 8 4.3 25.2 0.00 0.00 0.00 19 979.1
20260509185407 70 14 5.2 10.4 0.00 0.00 0.00 18 979.3
20260509184907 71 2 5.2 11.3 0.00 0.00 0.00 19 979.4
20260509184409 71 56 4.3 13.0 0.00 0.00 0.00 19 979.6
20260509184405 71 11 5.2 13.0 0.00 0.00 0.00 19 979.4
20260509183409 69 8 3.5 10.4 0.00 0.00 0.00 21 979.6
20260509183405 70 30 4.3 12.2 0.00 0.00 0.00 19 979.6
20260509182410 69 0 3.5 8.7 0.00 0.00 0.00 21 979.8
20260509182405 70 309 3.5 9.6 0.00 0.00 0.00 20 979.6
20260509181905 69 30 3.5 9.6 0.00 0.00 0.00 20 979.6
20260509180903 69 300 4.3 8.7 0.00 0.00 0.00 22 979.8
20260509180403 69 256 4.3 11.3 0.00 0.00 0.00 21 979.8
20260509175903 69 345 4.3 11.3 0.00 0.00 0.00 21 979.8
20260509175403 69 322 4.3 11.3 0.00 0.00 0.00 21 979.6
20260509174907 69 31 4.3 10.4 0.00 0.00 0.00 20 979.9
20260509174903 69 335 5.2 11.3 0.00 0.00 0.00 22 979.8
20260509174508 69 353 4.3 13.9 0.00 0.00 0.00 21 979.9
20260509174009 69 332 2.6 13.9 0.00 0.00 0.00 24 979.9
20260509172902 69 8 2.6 8.7 0.00 0.00 0.00 21 979.9
20260509172400 68 296 4.3 9.6 0.00 0.00 0.00 21 980.0
20260509171901 68 6 5.2 9.6 0.00 0.00 0.00 22 980.0
20260509171405 68 8 4.3 12.2 0.00 0.00 0.00 23 980.0
20260509171401 68 13 5.2 10.4 0.00 0.00 0.00 21 980.1
20260509170401 67 334 4.3 12.2 0.00 0.00 0.00 22 979.9
20260509165901 67 6 5.2 11.3 0.00 0.00 0.00 21 980.0
20260509165400 67 331 4.3 11.3 0.00 0.00 0.00 21 980.0
20260509164900 67 346 5.2 10.4 0.00 0.00 0.00 23 980.0
20260509164401 67 318 6.1 10.4 0.00 0.00 0.00 21 980.0
20260509163859 67 339 6.1 11.3 0.00 0.00 0.00 22 979.9
20260509163359 67 26 6.1 12.2 0.00 0.00 0.00 21 980.0
20260509162902 66 349 5.2 11.3 0.00 0.00 0.00 24 979.8
20260509162858 67 321 5.2 12.2 0.00 0.00 0.00 24 979.8
20260509161859 66 342 5.2 11.3 0.00 0.00 0.00 23 979.8
20260509161358 65 337 5.2 11.3 0.00 0.00 0.00 25 979.8
20260509160859 65 314 4.3 9.6 0.00 0.00 0.00 23 979.8
20260509160402 64 18 4.3 11.3 0.00 0.00 0.00 26 979.8
20260509160358 65 333 4.3 8.7 0.00 0.00 0.00 25 979.9
20260509155403 64 289 3.5 10.4 0.00 0.00 0.00 25 979.9
20260509155359 64 312 4.3 11.3 0.00 0.00 0.00 25 979.9
20260509154358 64 39 2.6 6.1 0.00 0.00 0.00 26 979.9
20260509153858 63 311 3.5 7.8 0.00 0.00 0.00 27 980.0
20260509153358 63 22 3.5 7.8 0.00 0.00 0.00 26 980.0
20260509152859 63 351 2.6 7.0 0.00 0.00 0.00 26 980.1
20260509152403 63 295 1.7 5.2 0.00 0.00 0.00 29 980.1
20260509151903 62 337 1.7 4.3 0.00 0.00 0.00 29 980.1
20260509151358 62 326 2.6 6.1 0.00 0.00 0.00 27 980.2
20260509150857 61 302 2.6 6.1 0.00 0.00 0.00 30 980.1
20260509150356 61 23 1.7 6.1 0.00 0.00 0.00 29 980.2
20260509145856 61 314 1.7 5.2 0.00 0.00 0.00 29 980.2
20260509145357 61 30 0.9 5.2 0.00 0.00 0.00 33 980.2
20260509144900 60 340 0.9 2.6 0.00 0.00 0.00 35 980.5
20260509144856 60 342 0.9 3.5 0.00 0.00 0.00 35 980.4
20260509144502 60 330 0.0 4.3 0.00 0.00 0.00 36 980.4
20260509143355 60 328 0.0 4.3 0.00 0.00 0.00 38 980.4
20260509142854 60 276 0.9 4.3 0.00 0.00 0.00 39 980.4
20260509142353 59 333 0.9 4.3 0.00 0.00 0.00 40 980.4
20260509141854 59 301 0.9 3.5 0.00 0.00 0.00 38 980.4
20260509141355 58 226 0.9 3.5 0.00 0.00 0.00 39 980.4
20260509140854 57 283 0.0 2.6 0.00 0.00 0.00 41 980.4
20260509135855 55 193 0.0 1.7 0.00 0.00 0.00 44 980.2
20260509135353 55 219 0.0 0.9 0.00 0.00 0.00 44 980.2
20260509134856 54 272 0.0 1.7 0.00 0.00 0.00 46 980.1
20260509134852 55 235 0.0 0.9 0.00 0.00 0.00 44 980.2
20260509133852 54 246 0.0 2.6 0.00 0.00 0.00 46 980.1
20260509133357 51 217 0.0 1.7 0.00 0.00 0.00 51 980.0
20260509133353 53 243 0.0 2.6 0.00 0.00 0.00 47 980.0
20260509132352 50 250 0.0 0.0 0.00 0.00 0.00 60 979.9
20260509131852 51 250 0.0 0.9 0.00 0.00 0.00 59 980.0
20260509131350 52 250 0.0 0.9 0.00 0.00 0.00 54 979.9
20260509130850 51 210 0.0 1.7 0.00 0.00 0.00 51 979.9
20260509130351 49 206 0.0 1.7 0.00 0.00 0.00 54 979.8
20260509125850 46 226 0.0 0.9 0.00 0.00 0.00 71 979.8
20260509125349 46 200 0.0 0.0 0.00 0.00 0.00 71 979.8
20260509124848 45 200 0.0 0.0 0.00 0.00 0.00 72 979.8
20260509124348 44 200 0.0 0.0 0.00 0.00 0.00 72 979.5
20260509123853 42 200 0.0 0.0 0.00 0.00 0.00 74 979.4
20260509123848 43 200 0.0 0.0 0.00 0.00 0.00 73 979.4
20260509122848 42 200 0.0 0.0 0.00 0.00 0.00 74 979.4
20260509122348 41 200 0.0 0.0 0.00 0.00 0.00 75 979.3
20260509121848 41 200 0.0 0.0 0.00 0.00 0.00 74 979.3
20260509121350 41 199 0.0 0.0 0.00 0.00 0.00 74 979.2
20260509120848 41 200 0.0 0.0 0.00 0.00 0.00 74 979.2
20260509120348 42 199 0.0 0.0 0.00 0.00 0.00 72 979.1
20260509115846 42 199 0.0 0.0 0.00 0.00 0.00 71 978.8
20260509115346 43 199 0.0 0.0 0.00 0.00 0.00 70 978.8
20260509114846 43 199 0.0 0.0 0.00 0.00 0.00 69 978.7
20260509114349 44 200 0.0 0.0 0.00 0.00 0.00 68 978.8
20260509114345 43 200 0.0 0.0 0.00 0.00 0.00 69 978.7
20260509113346 44 199 0.0 0.0 0.00 0.00 0.00 66 978.7
20260509112850 46 199 0.0 0.0 0.00 0.00 0.00 64 978.7
20260509112846 45 200 0.0 0.0 0.00 0.00 0.00 65 978.6
20260509111846 46 200 0.0 0.9 0.00 0.00 0.00 64 978.6
20260509111346 46 204 0.0 2.6 0.00 0.00 0.00 64 978.6
20260509110844 46 207 0.0 2.6 0.00 0.00 0.00 64 978.6
20260509110344 46 201 0.0 0.9 0.00 0.00 0.00 65 978.8
20260509105844 47 204 0.0 0.9 0.00 0.00 0.00 63 978.8
20260509105344 47 210 0.0 0.0 0.00 0.00 0.00 61 978.8
20260509104846 48 233 0.0 1.7 0.00 0.00 0.00 60 978.9
20260509104842 48 210 0.0 0.9 0.00 0.00 0.00 61 978.9
20260509103841 48 224 0.0 1.7 0.00 0.00 0.00 60 978.9
20260509103342 48 356 0.0 0.0 0.00 0.00 0.00 62 978.9
20260509102843 48 355 0.0 0.0 0.00 0.00 0.00 61 978.8
20260509102344 49 338 0.0 0.0 0.00 0.00 0.00 59 978.8
20260509101839 49 338 0.0 0.9 0.00 0.00 0.00 58 978.7
20260509101340 49 338 0.0 1.7 0.00 0.00 0.00 58 978.6
20260509100839 50 258 0.0 1.7 0.00 0.00 0.00 58 978.6
20260509100340 50 359 0.9 7.0 0.00 0.00 0.00 57 978.5
20260509095840 51 235 1.7 7.0 0.00 0.00 0.00 55 978.5
20260509095340 51 179 3.5 8.7 0.00 0.00 0.00 55 978.3
20260509094840 51 196 4.3 9.6 0.00 0.00 0.00 55 978.2
20260509094344 51 208 4.3 11.3 0.00 0.00 0.00 56 978.2
20260509094340 51 188 5.2 9.6 0.00 0.00 0.00 56 978.2
20260509093338 51 195 4.3 11.3 0.00 0.00 0.00 57 978.3
20260509092838 51 221 4.3 9.6 0.00 0.00 0.00 56 978.3
20260509092338 51 204 4.3 9.6 0.00 0.00 0.00 56 978.3
20260509091842 51 200 4.3 7.8 0.00 0.00 0.00 56 978.5
20260509091838 51 153 3.5 7.8 0.00 0.00 0.00 56 978.5
20260509090837 51 226 5.2 9.6 0.00 0.00 0.00 55 978.5
20260509090338 52 201 5.2 9.6 0.00 0.00 0.00 54 978.3
20260509085844 53 206 6.1 13.9 0.00 0.00 0.00 53 978.5
20260509085837 52 203 5.2 9.6 0.00 0.00 0.00 54 978.5
20260509085338 53 217 6.1 10.4 0.00 0.00 0.00 53 978.5
20260509084337 53 171 6.1 13.9 0.00 0.00 0.00 53 978.5
20260509083838 53 200 6.1 13.0 0.00 0.00 0.00 52 978.5
20260509083337 53 205 7.0 13.0 0.00 0.00 0.00 52 978.5
20260509082838 53 216 6.1 12.2 0.00 0.00 0.00 52 978.5
20260509082337 53 207 6.1 11.3 0.00 0.00 0.00 52 978.5
20260509081837 53 205 7.0 12.2 0.00 0.00 0.00 52 978.5
20260509081337 53 198 7.8 14.8 0.00 0.00 0.00 52 978.5
20260509080837 53 205 7.8 14.8 0.00 0.00 0.00 52 978.5
20260509080338 53 159 7.8 16.5 0.00 0.00 0.00 53 978.5
20260509075837 53 192 8.7 16.5 0.00 0.00 0.00 53 978.5
20260509075341 53 201 8.7 15.6 0.00 0.00 0.00 54 978.5
20260509075337 53 176 8.7 14.8 0.00 0.00 0.00 53 978.5
20260509074337 53 224 8.7 15.6 0.00 0.00 0.00 54 978.5
20260509073837 53 200 8.7 15.6 0.00 0.00 0.00 54 978.5
20260509073337 53 186 7.8 14.8 0.00 0.00 0.00 55 978.5
20260509072838 53 151 7.8 13.9 0.00 0.00 0.00 55 978.5
20260509072337 53 180 7.0 13.0 0.00 0.00 0.00 56 978.7
20260509071837 52 155 7.0 13.0 0.00 0.00 0.00 56 978.7
20260509071336 52 198 7.0 13.0 0.00 0.00 0.00 57 978.8
20260509070836 52 178 6.1 12.2 0.00 0.00 0.00 57 978.9
20260509070336 51 196 5.2 12.2 0.00 0.00 0.00 59 979.1
20260509065833 51 200 3.5 10.4 0.00 0.00 0.00 60 979.3
20260509065333 50 155 1.7 7.8 0.00 0.00 0.00 61 979.3
20260509064833 50 166 0.0 3.5 0.00 0.00 0.00 62 979.5
20260509064333 50 122 0.0 1.7 0.00 0.00 0.00 62 979.5
20260509063834 50 139 0.0 1.7 0.00 0.00 0.00 62 979.5
20260509063333 50 156 0.0 0.9 0.00 0.00 0.00 61 979.6
20260509062839 51 132 0.0 1.7 0.00 0.00 0.00 59 979.9
20260509062834 50 151 0.0 0.9 0.00 0.00 0.00 60 979.8
20260509062333 51 169 0.0 0.9 0.00 0.00 0.00 59 979.9
20260509061338 51 138 0.0 3.5 0.00 0.00 0.00 59 980.0
20260509061333 51 194 0.0 1.7 0.00 0.00 0.00 59 980.0
20260509060335 52 140 0.9 3.5 0.00 0.00 0.00 59 980.2
20260509060331 52 139 0.0 3.5 0.00 0.00 0.00 59 980.1
20260509055327 52 129 0.9 3.5 0.00 0.00 0.00 59 980.2
20260509054828 52 164 1.7 3.5 0.00 0.00 0.00 59 980.4
20260509054329 52 146 1.7 4.3 0.00 0.00 0.00 59 980.6
20260509053826 53 179 1.7 5.2 0.00 0.00 0.00 58 980.5
20260509053330 53 159 2.6 5.2 0.00 0.00 0.00 57 980.6
20260509053326 53 151 2.6 5.2 0.00 0.00 0.00 57 980.5
20260509052931 53 195 2.6 7.0 0.00 0.00 0.00 58 980.7
20260509051826 52 165 3.5 7.0 0.00 0.00 0.00 58 980.6
20260509051331 52 172 3.5 6.1 0.00 0.00 0.00 60 980.6
20260509051326 52 186 3.5 7.0 0.00 0.00 0.00 59 980.6
20260509050324 51 193 2.6 6.1 0.00 0.00 0.00 60 980.6
20260509045828 51 158 1.7 6.1 0.00 0.00 0.00 62 980.6
20260509045823 51 163 1.7 4.3 0.00 0.00 0.00 62 980.6
20260509044828 51 147 0.9 3.5 0.00 0.00 0.00 62 980.8
20260509044824 51 179 1.7 6.1 0.00 0.00 0.00 62 980.7
20260509043824 51 140 0.9 2.6 0.00 0.00 0.00 63 980.9
20260509043324 50 146 0.9 2.6 0.00 0.00 0.00 64 980.8
20260509042824 50 193 0.9 2.6 0.00 0.00 0.00 66 980.9
20260509042324 49 124 0.0 1.7 0.00 0.00 0.00 68 980.8
20260509041823 49 178 0.0 0.9 0.00 0.00 0.00 69 980.9
20260509041322 49 198 0.0 0.0 0.00 0.00 0.00 70 981.1
20260509040822 49 197 0.0 0.0 0.00 0.00 0.00 69 981.2
20260509040321 49 197 0.0 0.0 0.00 0.00 0.00 67 981.1
20260509035822 49 197 0.0 0.0 0.00 0.00 0.00 66 981.1
20260509035327 49 197 0.0 0.0 0.00 0.00 0.00 66 980.8
20260509035322 49 197 0.0 0.0 0.00 0.00 0.00 67 980.9
20260509034322 49 197 0.0 0.0 0.00 0.00 0.00 66 980.8
20260509033822 49 197 0.0 0.0 0.00 0.00 0.00 67 980.7
20260509033322 50 197 0.0 0.0 0.00 0.00 0.00 66 980.7
20260509032821 50 197 0.0 0.0 0.00 0.00 0.00 65 980.7
20260509032320 51 197 0.0 0.0 0.00 0.00 0.00 64 980.7
20260509031820 51 197 0.0 0.0 0.00 0.00 0.00 64 980.7
20260509031320 51 197 0.0 0.0 0.00 0.00 0.00 64 980.6
20260509030820 52 197 0.0 0.0 0.00 0.00 0.00 64 980.5
20260509030320 52 151 0.0 2.6 0.00 0.00 0.00 64 980.4
20260509025819 52 179 0.9 2.6 0.00 0.00 0.00 62 980.4
20260509025320 52 159 0.0 2.6 0.00 0.00 0.00 63 980.2
20260509024821 52 163 0.0 1.7 0.00 0.00 0.00 63 980.2
20260509024319 53 160 0.0 1.7 0.00 0.00 0.00 62 980.1
20260509023820 53 197 0.0 1.7 0.00 0.00 0.00 61 980.1
20260509023317 53 141 0.0 0.9 0.00 0.00 0.00 60 980.1
20260509022817 54 143 0.0 0.9 0.00 0.00 0.00 60 980.1
20260509022317 55 170 0.0 0.0 0.00 0.00 0.00 58 980.1
20260509021817 55 151 0.0 0.0 0.00 0.00 0.00 56 980.1
20260509021316 56 151 0.0 0.0 0.00 0.00 0.00 55 980.0